Preview of NWS' New Version of Forecast
This preview is not operational and should not be used for support decisions.

Regional Weather Roundup (RWR)

Issued by National Weather Service (NWS)

                            
000
ASUS43 KDMX 191706
RWRIA 

WEATHER ROUNDUP FOR IOWA
NATIONAL WEATHER SERVICE DES MOINES IA
1200 PM CDT FRI APR 19 2019

NOTE: "FAIR" INDICATES FEW OR NO CLOUDS BELOW 12,000 FEET WITH NO
SIGNIFICANT WEATHER AND/OR OBSTRUCTIONS TO VISIBILITY.

* - THESE STATIONS ARE NOT NWS STATIONS...THUS NOT UNDER NWS
QUALITY CONTROL.  THEY ALSO DO NOT REPORT WEATHER SUCH 
AS PRECIPITATION OR FOG.  

IAZ001>003-012>014-020>022-031>034-043>046-191800-
   NORTHWEST IOWA
  
CITY           SKY/WX    TMP DP  RH WIND       PRES   REMARKS
CARROLL *      SUNNY     63  36  36 N15       30.07S                  
CHEROKEE *     SUNNY     57  33  41 NW9       30.09F                  
DENISON *      SUNNY     55  32  41 VRB6G14   30.10S                  
LE MARS *      SUNNY     57  34  41 VRB5      30.10F                  
SHELDON *      SUNNY     57  34  41 W8        30.08S                  
SIOUX CITY     SUNNY     57  32  38 CALM      30.11F                  
SPENCER        SUNNY     59  32  36 MISG      30.08S                  
STORM LAKE *   SUNNY     55  32  41 VRB6G14   30.06S                  
$$
 
IAZ055>058-069>071-079>083-090>094-191800-
   SOUTHWEST IOWA
  
CITY           SKY/WX    TMP DP  RH WIND       PRES   REMARKS
ATLANTIC *     SUNNY     55  32  41 N16       30.07S                  
AUDUBON *      SUNNY     55  34  44 CALM      30.08F                  
CLARINDA *     SUNNY     57  30  35 N13       30.10S                  
COUNCIL BLFS * MOSUNNY   55  34  44 NW10G16   30.10S                  
CRESTON *      MOSUNNY   55  32  41 NE14G22   30.06S                  
HARLAN  *      SUNNY     57  32  38 N10       30.09S                  
LAMONI         MOSUNNY   56  33  42 N15G25    30.04F                  
RED OAK *      SUNNY     59  32  36 N10G17    30.09S                  
SHENANDOAH *   SUNNY     57  32  38 VRB6G20   30.08S                  
$$
 
IAZ047>049-059>061-072>074-084-191800-
   CENTRAL IOWA
  
CITY           SKY/WX    TMP DP  RH WIND       PRES   REMARKS
AMES           MOSUNNY   57  34  41 NE13G22   30.05F                  
ANKENY *       MOSUNNY   57  34  41 NE12G21   30.06F                  
BOONE *        SUNNY     55  32  41 N17       30.05S                  
CHARITON *     MOSUNNY   55  32  41 N16G23    30.03S                  
DES MOINES     MOSUNNY   57  33  40 NE17G24   30.05F                  
GRINNELL*      SUNNY     55  31  39 N15G24    30.04S                  
KNOXVILLE *    SUNNY     55  30  38 N12G22    30.03F                  
MARSHALLTOWN   SUNNY     57  30  35 N17G30    30.03S                  
NEWTON *       SUNNY     55  32  41 NE16      30.03F                  
PELLA *        SUNNY     57  28  33 N13G20    30.04F                  
PERRY *        FAIR      57  31  36 NE14      30.06F                  
$$
 
IAZ004>006-015-016-023>025-035-036-191800-
   NORTH CENTRAL IOWA
  
CITY           SKY/WX    TMP DP  RH WIND       PRES   REMARKS
ALGONA *       MOSUNNY   55  34  44 VRB7G15   30.06S                  
CLARION *      SUNNY     55  32  41 N12       30.05F                  
ESTHERVILLE    SUNNY     56  31  38 N10       30.07S                  
FORT DODGE *   SUNNY     57  31  37 N12       30.07F                  
MASON CITY     SUNNY     57  30  35 N14G25    30.06S                  
FOREST CITY *  FAIR      55  28  35 N9        30.06S                  
IOWA FALLS *   FAIR      56  33  42 N10G22    30.06S                  
$$

IAZ007>011-017>019-026>030-037>042-050>054-066-191800-
   NORTHEAST IOWA
  
CITY           SKY/WX    TMP DP  RH WIND       PRES   REMARKS
CEDAR RAPIDS   FAIR      55  30  38 N21G35    29.98S                  
CHARLES CITY * FAIR      55  28  35 N18       30.04R                  
CLINTON *      FAIR      55  30  38 N23G31    29.93F                  
DECORAH *      FAIR      54  30  40 N12G17    30.00S                  
DUBUQUE        FAIR      54  30  40 N17G28    29.96S                  
MONTICELLO *   FAIR      55  27  33 N15G26    29.97F                  
OELWEIN *      FAIR      54  30  40 N14G23    30.02R                  
WATERLOO       FAIR      58  31  35 N18G29    30.02S                  
$$
 
IAZ064-065-067-068-078-191800-
   EAST CENTRAL IOWA
  
CITY           SKY/WX    TMP DP  RH WIND       PRES   REMARKS
DAVENPORT      FAIR      55  30  38 N18G30    29.95F                  
IOWA CITY      FAIR      56  29  35 N17G25    29.99F                  
MT. PLEASANT * SUNNY     55  32  41 N24G31    29.95F                  
MUSCATINE *    FAIR      55  28  35 N26       29.95F                  
QUAD CITIES    FAIR      56  29  35 N21G30    29.91F                  
$$
 
IAZ062-063-075>077-085>089-095>099-191800-
   SOUTHEAST IOWA
  
CITY           SKY/WX    TMP DP  RH WIND       PRES   REMARKS
BURLINGTON     SUNNY     55  31  39 N28G35    29.92F                  
FAIRFIELD *    SUNNY     55  28  35 N22G31    29.97F                  
FORT MADISON * SUNNY     54  32  43 N18G29    29.94F                  
KEOKUK *       SUNNY     54  32  43 N16G24    29.93S                  
OSKALOOSA *    FAIR      56  26  31 N17G30    30.01S                  
CENTERVILLE *  FAIR      54  30  40 N22G30    30.02F                  
OTTUMWA        SUNNY     56  28  34 N21G31    30.00F                  
WASHINGTON *   SUNNY     55  28  35 N20G29    29.98F                  
$$

ABBREVIATIONS USED IN REMARKS
   TC - TEMPERATURES IN CELSIUS
  WCI - WIND CHILL INDEX
   HX - HEAT INDEX
  VSB - VISIBILITY  
$$